map of BZV home
Great Circle Mapper logo
BZV - Airport
Location
City:  Brazzaville, Congo (Republic of)
Name:Maya Maya
ICAO:FCBB
IATA:BZV

Details
Type:Airport (Aerodrome, Airfield)
Use:Public/Civil, International (customs port of entry)
Latitude:415'02"S (-4.250499)
Longitude:1515'05"E (15.251500)
Elevation:1047 ft (319 m)
Variation:1.56W (WMM2015 magnetic declination)
0.15 annual change
Runways:1
Longest:10827 × 148 ft (3300 × 45 m)

Time
Time Zone:UTC+1
Local Time:

Weather
METAR:FCBB 242100Z 25006KT 7000 NSC 22/16 Q1015 NOSIG
TAF:FCBB 241700Z 2418/2524 26006KT 6000 NSC
BECMG 2504/2506 4000 BR BKN020
BECMG 2508/2510 8000 NSW

Related Locations
Nearby:
Farthest:PLPA: 12228 mi / 19679 km
Palmyra Island Atoll [Palmyra Airport (Cooper)], UM

Find:

   beyond  
but within

Other Information
Maps:
NOTAMs:
Links:
Sources:

  
flag of Congo (Republic of)   

Sectional Chart

Flight Planning
at skyvector.com

Satellite Image

Google Maps Satellite view

 

Copyright © 2004-2016 Karl L. Swartz. All rights reserved.
The Great Circle Mapper name and logo are trademarks of the Great Circle Mapper.
All other trademarks mentioned herein belong to their respective owners.
Please see credits for attibutions and further copyright information.

  Follow gcmap on Facebook Follow gcmap on Twitter Follow gcmap on Google+ GCmap on LinkedIn

hCard Microformat

Geo Microformat